Hourly Weather Otloczynek

Today, 30 July, Friday

Time Temperature Precipitation Wind Pressure Humidity
00:00 +18°C° 0 mm 2 mps 753 mmHg 72%
01:00 +17°C° 0 mm 2 mps 753 mmHg 74%
02:00 +17°C° 0 mm 2 mps 753 mmHg 72%
03:00 +17°C° 0 mm 2 mps 753 mmHg 70%
04:00 +17°C° 0 mm 2 mps 753 mmHg 69%
05:00 +18°C° 0 mm 3 mps 753 mmHg 64%
06:00 +19°C° 0 mm 3 mps 753 mmHg 60%
07:00 +20°C° 0 mm 4 mps 753 mmHg 55%
08:00 +22°C° 0 mm 5 mps 752 mmHg 50%
09:00 +23°C° 0 mm 6 mps 752 mmHg 45%
10:00 +24°C° 0 mm 7 mps 752 mmHg 40%
11:00 +26°C° 0 mm 7 mps 752 mmHg 38%
12:00 +27°C° 0 mm 7 mps 752 mmHg 37%
13:00 +27°C° 0 mm 7 mps 751 mmHg 35%
14:00 +28°C° 0 mm 7 mps 751 mmHg 36%
15:00 +28°C° 0 mm 6 mps 751 mmHg 36%
16:00 +28°C° 0 mm 6 mps 750 mmHg 37%
17:00 +27°C° 0 mm 5 mps 750 mmHg 41%
18:00 +25°C° 0 mm 4 mps 750 mmHg 46%
19:00 +24°C° 0 mm 3 mps 751 mmHg 50%
20:00 +21°C° 0 mm 3 mps 751 mmHg 52%
21:00 +20°C° 0 mm 2 mps 751 mmHg 54%
22:00 +19°C° 0 mm 2 mps 751 mmHg 56%
23:00 +18°C° 0 mm 2 mps 751 mmHg 57%

Tomorrow, 31 July, Saturday

Time Temperature Precipitation Wind Pressure Humidity
00:00 +19°C° 0 mm 1 mps 751 mmHg 57%
01:00 +18°C° 0 mm 1 mps 751 mmHg 58%
02:00 +17°C° 0 mm 2 mps 751 mmHg 60%
03:00 +17°C° 0 mm 2 mps 751 mmHg 61%
04:00 +17°C° 0 mm 2 mps 751 mmHg 62%
05:00 +18°C° 0 mm 2 mps 751 mmHg 61%
06:00 +20°C° 0 mm 3 mps 751 mmHg 60%
07:00 +21°C° 0 mm 3 mps 751 mmHg 59%
08:00 +24°C° 0 mm 3 mps 750 mmHg 55%
09:00 +25°C° 0 mm 4 mps 750 mmHg 51%
10:00 +27°C° 0 mm 5 mps 750 mmHg 47%
11:00 +27°C° 0 mm 5 mps 750 mmHg 50%
12:00 +26°C° 0 mm 5 mps 750 mmHg 52%
13:00 +26°C° 0 mm 4 mps 750 mmHg 55%
14:00 +27°C° 0 mm 5 mps 750 mmHg 48%
15:00 +28°C° 0 mm 5 mps 749 mmHg 41%
16:00 +29°C° 0 mm 6 mps 749 mmHg 34%
17:00 +27°C° 0 mm 5 mps 749 mmHg 38%
18:00 +26°C° 0 mm 4 mps 749 mmHg 42%
19:00 +23°C° 0 mm 4 mps 749 mmHg 45%
20:00 +22°C° 0 mm 3 mps 750 mmHg 49%
21:00 +20°C° 0 mm 3 mps 750 mmHg 53%
22:00 +19°C° 0 mm 3 mps 751 mmHg 56%
23:00 +18°C° 0 mm 3 mps 751 mmHg 59%

Day after tomorrow, 1 August, Sunday

Time Temperature Precipitation Wind Pressure Humidity
00:00 +18°C° 0 mm 3 mps 751 mmHg 62%
01:00 +17°C° 0 mm 3 mps 751 mmHg 64%
02:00 +17°C° 0 mm 3 mps 751 mmHg 67%
03:00 +16°C° 0 mm 3 mps 751 mmHg 70%
04:00 +16°C° 0 mm 3 mps 751 mmHg 73%
05:00 +17°C° 0 mm 3 mps 751 mmHg 71%
06:00 +18°C° 0 mm 3 mps 751 mmHg 68%
07:00 +19°C° 0 mm 3 mps 751 mmHg 66%
08:00 +20°C° 0 mm 3 mps 751 mmHg 63%
09:00 +21°C° 0 mm 3 mps 751 mmHg 59%
10:00 +22°C° 0 mm 4 mps 751 mmHg 56%
11:00 +21°C° 0.3 mm 4 mps 752 mmHg 62%
12:00 +20°C° 0.3 mm 4 mps 752 mmHg 67%
13:00 +20°C° 0.3 mm 4 mps 752 mmHg 73%
14:00 +20°C° 0.1 mm 4 mps 752 mmHg 71%
15:00 +20°C° 0.1 mm 4 mps 752 mmHg 68%
16:00 +21°C° 0.1 mm 4 mps 752 mmHg 66%
17:00 +20°C° 0 mm 3 mps 751 mmHg 68%
18:00 +20°C° 0 mm 2 mps 751 mmHg 70%
19:00 +20°C° 0 mm 2 mps 751 mmHg 71%
20:00 +18°C° 0 mm 2 mps 751 mmHg 75%
21:00 +17°C° 0 mm 2 mps 751 mmHg 78%
22:00 +16°C° 0 mm 2 mps 751 mmHg 82%
23:00 +16°C° 0 mm 2 mps 751 mmHg 82%

2 August, Monday

Time Temperature Precipitation Wind Pressure Humidity
00:00 +16°C° 0 mm 2 mps 751 mmHg 82%
01:00 +16°C° 0 mm 2 mps 751 mmHg 83%
02:00 +15°C° 0 mm 2 mps 751 mmHg 84%
03:00 +15°C° 0 mm 2 mps 751 mmHg 86%
04:00 +15°C° 0 mm 2 mps 751 mmHg 88%
05:00 +16°C° 0 mm 3 mps 751 mmHg 81%
06:00 +17°C° 0 mm 3 mps 751 mmHg 75%
07:00 +19°C° 0 mm 3 mps 752 mmHg 68%
08:00 +20°C° 0.1 mm 4 mps 752 mmHg 63%
09:00 +22°C° 0.1 mm 4 mps 751 mmHg 58%
10:00 +23°C° 0.1 mm 5 mps 751 mmHg 52%
11:00 +23°C° 0.4 mm 5 mps 752 mmHg 56%
12:00 +22°C° 0.4 mm 5 mps 752 mmHg 59%
13:00 +22°C° 0.4 mm 5 mps 752 mmHg 62%
14:00 +22°C° 0.1 mm 5 mps 752 mmHg 55%
15:00 +23°C° 0.1 mm 5 mps 752 mmHg 49%
16:00 +25°C° 0.1 mm 5 mps 752 mmHg 43%
17:00 +23°C° 0 mm 6 mps 753 mmHg 45%
18:00 +21°C° 0 mm 6 mps 753 mmHg 46%
19:00 +20°C° 0 mm 6 mps 753 mmHg 48%
20:00 +19°C° 0 mm 5 mps 754 mmHg 52%
21:00 +18°C° 0 mm 4 mps 754 mmHg 56%
22:00 +16°C° 0 mm 3 mps 754 mmHg 60%
23:00 +16°C° 0 mm 3 mps 755 mmHg 62%

3 August, Tuesday

Time Temperature Precipitation Wind Pressure Humidity
00:00 +16°C° 0 mm 3 mps 755 mmHg 64%
01:00 +16°C° 0 mm 3 mps 755 mmHg 66%
02:00 +14°C° 0 mm 3 mps 755 mmHg 68%
03:00 +13°C° 0 mm 3 mps 755 mmHg 70%
04:00 +13°C° 0 mm 3 mps 755 mmHg 73%
05:00 +14°C° 0 mm 3 mps 756 mmHg 68%
06:00 +17°C° 0 mm 3 mps 756 mmHg 64%
07:00 +18°C° 0 mm 4 mps 756 mmHg 60%
08:00 +20°C° 0 mm 4 mps 756 mmHg 54%
09:00 +21°C° 0 mm 4 mps 756 mmHg 49%
10:00 +23°C° 0 mm 4 mps 756 mmHg 43%
11:00 +23°C° 0 mm 4 mps 756 mmHg 42%
12:00 +25°C° 0 mm 5 mps 756 mmHg 40%
13:00 +25°C° 0 mm 5 mps 755 mmHg 39%
14:00 +25°C° 0 mm 4 mps 755 mmHg 41%
15:00 +25°C° 0 mm 4 mps 755 mmHg 43%
16:00 +24°C° 0 mm 3 mps 755 mmHg 45%
17:00 +22°C° 0 mm 3 mps 755 mmHg 50%
18:00 +21°C° 0 mm 2 mps 755 mmHg 55%
19:00 +20°C° 0 mm 2 mps 755 mmHg 60%
20:00 +19°C° 0.1 mm 2 mps 755 mmHg 68%
21:00 +18°C° 0.1 mm 2 mps 755 mmHg 75%
22:00 +17°C° 0.1 mm 2 mps 755 mmHg 82%
23:00 +17°C° 0.1 mm 2 mps 755 mmHg 84%

4 August, Wednesday

Time Temperature Precipitation Wind Pressure Humidity
00:00 +17°C° 0.1 mm 2 mps 756 mmHg 86%
01:00 +17°C° 0.1 mm 2 mps 756 mmHg 88%
02:00 +17°C° 0 mm 2 mps 756 mmHg 88%
03:00 +16°C° 0 mm 1 mps 755 mmHg 89%
04:00 +16°C° 0 mm 1 mps 755 mmHg 89%
05:00 +18°C° 0 mm 1 mps 755 mmHg 87%
06:00 +19°C° 0 mm 1 mps 756 mmHg 84%
07:00 +19°C° 0 mm 1 mps 756 mmHg 81%
08:00 +20°C° 0.3 mm 1 mps 756 mmHg 76%
09:00 +21°C° 0.3 mm 1 mps 756 mmHg 71%
10:00 +20°C° 0.3 mm 0 mps 755 mmHg 66%
11:00 +23°C° 0.6 mm 1 mps 755 mmHg 62%
12:00 +24°C° 0.6 mm 1 mps 755 mmHg 59%
13:00 +25°C° 0.6 mm 1 mps 755 mmHg 55%
14:00 +25°C° 0.5 mm 1 mps 755 mmHg 55%
15:00 +25°C° 0.5 mm 1 mps 754 mmHg 55%
16:00 +25°C° 0.5 mm 1 mps 754 mmHg 56%
17:00 +23°C° 0.7 mm 1 mps 754 mmHg 62%
18:00 +22°C° 0.7 mm 1 mps 754 mmHg 68%
19:00 +21°C° 0.7 mm 1 mps 754 mmHg 74%
20:00 +20°C° 0.2 mm 1 mps 754 mmHg 78%
21:00 +18°C° 0.2 mm 2 mps 754 mmHg 82%
22:00 +17°C° 0.2 mm 2 mps 754 mmHg 86%
23:00 +17°C° 0 mm 2 mps 754 mmHg 88%
Show more